Glasgow, United Kingdom

3:31 AM BST on October 17, 2017 (GMT +0100)
Glasgow

Weather History for EGPF - December, 2012

Change the Weather History Date:

Tuesday, December 18, 2012

  Actual Average Record
Temperature  
Mean Temperature 40 °F -  
Max Temperature 44 °F 43 °F 55 °F (2015)
Min Temperature 37 °F 33 °F 10 °F (2010)
Degree Days  
Heating Degree Days 24    
Moisture  
Dew Point 39 °F    
Average Humidity 93    
Maximum Humidity 100    
Minimum Humidity 87    
Precipitation  
Precipitation 0.00 in - - ()
Sea Level Pressure  
Sea Level Pressure 30.01 in    
Wind  
Wind Speed 4 mph ()    
Max Wind Speed 9 mph    
Max Gust Speed -    
Visibility 6.1 miles    
Events      
Averages and records for this station are not official NWS values.
T = Trace of Precipitation, MM = Missing Value Source: Averaged Metar Reports

Daily Weather History Graph

Daily Weather History Graph

Search for Another Location

Airport or City:

Trip Planner

Search our weather history database for the weather conditions in past years. The results will help you decide how hot, cold, wet, or windy it might be!

Date:

Astronomy

Dec. 18, 2012 Rise Set
Actual Time 8:44 AM GMT 3:44 PM GMT
Civil Twilight 7:57 AM GMT 4:31 PM GMT
Nautical Twilight 7:08 AM GMT 5:20 PM GMT
Astronomical Twilight 6:23 AM GMT 6:05 PM GMT
Moon 11:19 AM GMT (12/18) 10:58 PM GMT (12/18)
Length of Visible Light 8h 33m
Length of Day
6h 59m
Waxing Crescent, 32% of the Moon is Illuminated
Dec 18
Waxing Crescent
Dec 20
First Quarter
Dec 28
Full
Jan 5
Last Quarter
Jan 11
New

Hourly Weather History & Observations

Time (GMT) Temp. Windchill Dew Point Humidity Pressure Visibility Wind Dir Wind Speed Gust Speed Precip Events Conditions
12:20 AM 39.2 °F 35.9 °F 37.4 °F 93% 29.77 in 6.2 mi SW 4.6 mph - N/A   Mostly Cloudy
12:50 AM 41.0 °F 39.0 °F 37.4 °F 87% 29.80 in 6.2 mi SW 3.5 mph - N/A   Scattered Clouds
1:20 AM 39.2 °F - 37.4 °F 93% 29.80 in 6.2 mi Variable 2.3 mph - N/A   Mostly Cloudy
1:50 AM 39.2 °F 35.9 °F 37.4 °F 93% 29.83 in 6.2 mi SW 4.6 mph - N/A   Mostly Cloudy
2:20 AM 39.2 °F 37.0 °F 37.4 °F 93% 29.83 in 6.2 mi WSW 3.5 mph - N/A   Mostly Cloudy
4:20 AM 39.2 °F 35.9 °F 37.4 °F 93% 29.89 in 6.2 mi West 4.6 mph - N/A   Mostly Cloudy
4:50 AM 39.2 °F 35.9 °F 37.4 °F 93% 29.89 in 6.2 mi WSW 4.6 mph - N/A   Overcast
5:20 AM 39.2 °F 37.0 °F 37.4 °F 93% 29.92 in 6.2 mi SW 3.5 mph - N/A   Overcast
5:50 AM 39.2 °F 35.0 °F 37.4 °F 93% 29.92 in 6.2 mi SW 5.8 mph - N/A   Overcast
6:20 AM 39.2 °F 37.0 °F 37.4 °F 93% 29.95 in 6.2 mi West 3.5 mph - N/A   Mostly Cloudy
6:50 AM 37.4 °F - 37.4 °F 100% 29.95 in 6.2 mi West 2.3 mph - N/A   Mostly Cloudy
7:20 AM 37.4 °F - 37.4 °F 100% 29.98 in 6.2 mi WSW 2.3 mph - N/A   Scattered Clouds
7:50 AM 39.2 °F - 37.4 °F 93% 29.98 in 6.2 mi ENE 2.3 mph - N/A   Mostly Cloudy
8:20 AM 39.2 °F - 37.4 °F 93% 29.98 in 6.2 mi Calm Calm - N/A   Mostly Cloudy
8:50 AM 39.2 °F - 39.2 °F 100% 29.98 in 6.2 mi ESE 2.3 mph - N/A   Mostly Cloudy
9:20 AM 41.0 °F 39.0 °F 39.2 °F 93% 30.01 in 6.2 mi Variable 3.5 mph - N/A   Mostly Cloudy
9:50 AM 39.2 °F - 37.4 °F 93% 30.01 in 6.2 mi Calm Calm - N/A   Mostly Cloudy
10:20 AM 39.2 °F - 37.4 °F 93% 30.04 in 6.2 mi NNE 2.3 mph - N/A   Mostly Cloudy
10:50 AM 41.0 °F 39.0 °F 39.2 °F 93% 30.04 in 6.2 mi Variable 3.5 mph - N/A   Mostly Cloudy
11:20 AM 41.0 °F - 41.0 °F 100% 30.04 in 6.2 mi Variable 2.3 mph - N/A   Mostly Cloudy
11:50 AM 42.8 °F - 41.0 °F 93% 30.06 in 6.2 mi North 2.3 mph - N/A   Mostly Cloudy
12:20 PM 42.8 °F 41.1 °F 41.0 °F 93% 30.06 in 6.2 mi NNE 3.5 mph - N/A   Mostly Cloudy
12:50 PM 44.6 °F 41.4 °F 41.0 °F 87% 30.06 in 6.2 mi NE 5.8 mph - N/A   Mostly Cloudy
1:20 PM 44.6 °F 42.2 °F 41.0 °F 87% 30.06 in 6.2 mi ENE 4.6 mph - N/A   Mostly Cloudy
1:50 PM 42.8 °F 40.1 °F 41.0 °F 93% 30.06 in 6.2 mi ENE 4.6 mph - N/A   Mostly Cloudy
2:20 PM 42.8 °F 41.1 °F 41.0 °F 93% 30.06 in 6.2 mi East 3.5 mph - N/A   Mostly Cloudy
2:50 PM 42.8 °F 38.6 °F 41.0 °F 93% 30.06 in 6.2 mi ENE 6.9 mph - N/A   Mostly Cloudy
3:20 PM 42.8 °F 38.6 °F 39.2 °F 87% 30.06 in 6.2 mi East 6.9 mph - N/A   Scattered Clouds
3:50 PM 41.0 °F 39.0 °F 39.2 °F 93% 30.06 in 6.2 mi East 3.5 mph - N/A   Mostly Cloudy
4:20 PM 41.0 °F 39.0 °F 39.2 °F 93% 30.06 in 6.2 mi East 3.5 mph - N/A   Mostly Cloudy
4:50 PM 41.0 °F 37.1 °F 39.2 °F 93% 30.09 in 6.2 mi ENE 5.8 mph - N/A   Mostly Cloudy
5:20 PM 41.0 °F 35.8 °F 39.2 °F 93% 30.09 in 6.2 mi ENE 8.1 mph - N/A   Mostly Cloudy
5:50 PM 41.0 °F 39.0 °F 39.2 °F 93% 30.09 in 6.2 mi ESE 3.5 mph - N/A   Mostly Cloudy
6:20 PM 41.0 °F 39.0 °F 39.2 °F 93% 30.09 in 5.6 mi East 3.5 mph - N/A   Mostly Cloudy
6:50 PM 41.0 °F 39.0 °F 39.2 °F 93% 30.09 in 6.2 mi Variable 3.5 mph - N/A   Mostly Cloudy
7:20 PM 41.0 °F 39.0 °F 39.2 °F 93% 30.09 in 5.6 mi Variable 3.5 mph - N/A   Mostly Cloudy
7:50 PM 41.0 °F 38.0 °F 39.2 °F 93% 30.09 in 5.6 mi ENE 4.6 mph - N/A   Mostly Cloudy
8:20 PM 41.0 °F 38.0 °F 39.2 °F 93% 30.09 in 5.6 mi East 4.6 mph - N/A   Mostly Cloudy
8:50 PM 41.0 °F 37.1 °F 39.2 °F 93% 30.09 in 5.6 mi ENE 5.8 mph - N/A   Mostly Cloudy
9:20 PM 41.0 °F 38.0 °F 39.2 °F 93% 30.09 in 6.2 mi East 4.6 mph - N/A   Mostly Cloudy
9:50 PM 41.0 °F 37.1 °F 39.2 °F 93% 30.09 in 6.2 mi East 5.8 mph - N/A   Mostly Cloudy
10:20 PM 41.0 °F 37.1 °F 39.2 °F 93% 30.09 in 6.2 mi ENE 5.8 mph - N/A   Mostly Cloudy
10:50 PM 41.0 °F 37.1 °F 39.2 °F 93% 30.06 in 6.2 mi East 5.8 mph - N/A   Mostly Cloudy
11:20 PM 41.0 °F 35.2 °F 39.2 °F 93% 30.06 in 5.6 mi ENE 9.2 mph - N/A   Mostly Cloudy
11:50 PM 41.0 °F 35.8 °F 39.2 °F 93% 30.06 in 6.2 mi ENE 8.1 mph - N/A   Mostly Cloudy